Location: Aigremont
(47.7188°N, 3.8925°E)
Time: 09:01:11
(UTC+00:00)

NOSS 3-1 (C) - Pass Details

Date: 18 February 2020
Orbit: 759 x 1449 km, 63.4° (Epoch: 26 March)

Event Time Altitude Azimuth Distance (km) Brightness Sun altitude
Exits shadow 03:54:03 55° 209° (SSW) 1,550 4.2 -29.5°
Drops below altitude 10° 04:01:25 10° 162° (SSE) 3,495 6.4 -28.3°
Sets 04:04:30 0° 159° (SSE) 4,507 7.1 -27.8°
